COSMOS 1275 DEB, 42112

Orbit data source: Space-Track

COSMOS 1275 DEB, 42112 is space debris in LEO originally from a launch on Thu, 04 Jun 1981 UTC launched from the Plesetsk Missile And Space Complex (PKMTR). Debris objects in space refer to the collection of defunct objects orbiting the Earth. Examples of debris include non-operational satellites, rocket bodies, and fragments generated from explosions, collisions, or faulty payload assembly.

Loading next visibility...
Identifier
42112, 1981-053PY
Orbit
LEO
Country
Flag of CISCIS
Related business
Manufacturer
Unknown
Mission
Spacecraft
Bus & Motor
Unknown
Mass
Unknown
Launch date (UTC)
1981-06-04 (45 years ago)
Launch vehicle
Unknown
Launch site
Plesetsk Missile And Space Complex (PKMTR)
Object type
Payload
Rocket body
Debris
Shape & HBR
Unknown shape, 0.1 m
Radar Cross Section
Small (<0.1 m²)

Expand to show TLE details & history
Last TLE update: 1 week ago

TLE from 1 week ago
0 COSMOS 1275 DEB
1 42112U 81053PY  26165.29423788  .00006895  00000-0  16417-2 0  9999
2 42112  82.8427 161.2067 0015398  54.0405 306.2221 14.53631554642151
Epoch: 2026-06-14T07:03Z
TLE epoch observation values (Epoch: 2026-06-14T07:03:42.152Z)
Latitude
0.00004°
Longitude
152.68403°
Altitude
710.375 km
Speed
7.504 km/s
True Right ascension
10h 44m 49s
True Declination
0° 00' 00"
Sunlit
Object was in daylight at epoch
Visualization orbit readout
Latitude
Unknown
Longitude
Unknown
Altitude
Unknown
Speed
Unknown
Apparent Right ascension
Unknown
Apparent Declination
Unknown
Sunlit
N/A
Visualization observer readout
Local Sidereal Time
21:37:32
Azimuth
Unknown
Elevation
Unknown
Doppler factor
Unknown
Orbital elements
Apogee altitude
721.773 km
Perigee altitude
699.941 km
Semi-major axis
7,088.994 km
Eccentricity
0.00154
Inclination
82.8427°
RAAN
161.2067°
Arg. of periapsis
54.0405°
True anomaly
306.07959°
Mean anomaly
306.2221°
Eccentric anomaly
306.15086°
Mean motion
3.63635 °/min
Orbital period
99 mins
BSTAR
0.0016417
Loading maneuver chart data...
Computing Atmospheric mass density...

Documentation

Showing up to 5 results
|